#timestamp,LO_Frequency,Hit,StdDev 
1620450015.8,286046991.5,N
1620450035.6,286046990.3,N
1620450055.5,286046991.3,N
1620450075.3,286046990.9,N
1620450095.2,286046990.9,N
1620450115.9,286046992.9,N
1620450135.7,286046995.9,N
1620450155.6,286046997.6,N
1620450175.4,286046996.3,N
1620450195.2,286046994.3,N
1620450215.1,286046991.8,N
1620450216.0,286046991.8,N
1620450235.8,286046992.5,N
1620450255.7,286046994.8,N
1620450275.5,286046991.8,N
1620450295.3,286046994.4,N
1620450315.2,286046993.1,N
1620450335.0,286046992.0,N
1620450335.9,286046992.0,N
1620450355.7,286046993.8,N
1620450375.6,286046995.1,N
1620450395.4,286046996.2,N
1620450415.3,286046993.6,N
1620450435.1,286046993.9,Y
1620450455.8,286047001.2,P
1620450475.7,286046998.9,N
1620450495.5,286046998.9,N
1620450515.4,286046998.9,N
1620450535.2,286046997.1,N
1620450555.0,286046997.2,N
1620450555.9,286046997.2,N
1620450575.8,286046995.9,N
1620450595.6,286046993.8,Y
1620450615.4,286046999.3,P
1620450635.3,286046998.9,N
1620450655.1,286046998.8,N
1620450675.9,286047005.6,Y
1620450695.7,286047004.5,P
1620450715.5,286047005.6,N
1620450735.4,286047005.2,N
1620450755.2,286047001.4,N
1620450775.1,286047004.1,N
1620450776.0,286047004.1,N
1620450795.8,286047003.7,N
1620450815.6,286047003.3,N
1620450835.5,286047007.2,Y
1620450855.3,286047002.1,P
1620450875.1,286046999.7,N
1620450895.9,286047000.6,N
1620450915.7,286047002.1,N
1620450935.6,286046999.7,N
1620450955.4,286047002.7,N
1620450975.2,286046999.8,N
1620450995.1,286046999.7,N
1620450996.0,286046999.7,N
1620451015.8,286047001.0,N
1620451035.7,286046998.1,N
1620451055.5,286047000.8,N
1620451075.3,286046998.1,N
1620451095.2,286046999.4,N
1620451115.0,286046998.4,N
1620451115.9,286046998.4,N
1620451135.7,286046999.9,N
1620451155.6,286047000.4,N
1620451175.4,286047000.7,N
1620451195.3,286047000.0,N
1620451215.1,286046999.9,N
1620451216.0,286046999.9,N
1620451235.8,286046999.9,N
1620451255.7,286047001.0,N
1620451275.5,286047000.9,N
1620451295.3,286046998.4,N
1620451315.2,286046996.9,N
1620451335.0,286046997.9,N
1620451335.9,286046997.9,N
1620451355.8,286046995.4,Y
1620451375.6,286046997.3,P
1620451395.4,286047001.6,N
1620451415.3,286047001.4,N
1620451435.1,286047002.6,N
1620451455.9,286047000.0,N
1620451475.7,286047000.8,N
1620451495.5,286046998.4,N
1620451515.4,286046998.8,N
1620451535.2,286046996.5,N
1620451555.0,286046997.9,N
1620451555.9,286046997.9,N
1620451575.8,286046994.9,N
1620451595.6,286046998.3,N
1620451615.5,286046996.8,N
1620451635.3,286046997.1,N
1620451655.1,286046999.3,N
1620451675.9,286046997.3,N
1620451695.7,286047000.8,N
1620451715.6,286047000.9,N
1620451735.4,286047001.2,N
1620451755.2,286046998.3,N
1620451775.1,286047000.4,N
1620451776.0,286047000.4,N
1620451795.8,286047001.2,N
1620451815.6,286046998.5,N
1620451835.5,286046998.1,N
1620451855.3,286047000.9,N
1620451875.2,286046999.6,N
1620451895.9,286046997.9,N
1620451915.7,286046998.0,N
1620451935.6,286046995.6,N
1620451955.4,286046995.8,N
1620451975.2,286046993.3,Y
1620451995.1,286046996.3,P
1620451996.0,286046996.3,N
1620452015.8,286046992.4,P
1620452035.7,286046994.2,N
1620452055.5,286046994.2,N
1620452075.3,286046992.4,Y
1620452095.2,286046997.7,P
1620452115.0,286046997.8,N
1620452115.9,286046997.8,N
1620452135.8,286046995.3,Y
1620452155.6,286046999.0,P
1620452175.4,286046996.5,P
1620452195.3,286046999.4,N
1620452215.1,286046996.7,N
1620452235.8,286046999.0,N
1620452255.7,286046999.3,N
1620452275.5,286047001.1,N
1620452295.4,286047001.0,N
1620452315.2,286046998.9,N
1620452335.0,286046996.5,N
1620452335.9,286046996.5,N
1620452355.8,286046999.3,N
1620452375.6,286046997.0,N
1620452395.4,286046999.1,N
1620452415.3,286046999.0,N
1620452435.1,286046997.8,N
1620452455.9,286046996.3,N
1620452475.7,286046993.7,Y
1620452495.5,286046994.9,P
1620452515.4,286046997.1,N
1620452535.2,286046996.6,N
1620452555.1,286046996.8,N
1620452556.0,286046996.8,N
1620452575.8,286046997.9,N
1620452595.6,286046994.9,Y
1620452615.5,286046998.1,P
1620452635.3,286046999.5,N
1620452655.2,286046998.9,N
1620452675.9,286046996.8,Y
1620452695.7,286046998.4,P
1620452715.6,286046998.9,P
1620452735.4,286046999.0,P
1620452755.2,286046999.2,N
1620452775.1,286046997.4,Y
1620452776.0,286046997.4,P
1620452795.8,286046999.2,N
1620452815.7,286046996.8,P
1620452835.5,286046997.3,N
1620452855.3,286046997.4,N
1620452875.2,286046998.0,N
1620452895.0,286046995.0,Y
1620452895.9,286046995.0,P
1620452915.8,286046997.0,N
1620452935.6,286046998.0,N
1620452955.4,286046997.9,N
1620452975.3,286046995.3,Y
1620452995.1,286046998.5,P
1620453015.9,286046998.8,N
1620453035.7,286046998.9,N
1620453055.5,286046995.0,Y
1620453075.4,286046996.7,P
1620453095.2,286046999.0,N
1620453115.1,286046999.0,N
1620453116.0,286046999.0,N
1620453135.8,286046999.6,N
1620453155.6,286046999.2,N
1620453175.5,286046999.5,N
1620453195.3,286046997.0,Y
1620453215.1,286046998.7,P
1620453235.9,286046998.8,P
1620453255.7,286046998.7,P
1620453275.6,286046998.8,Y
1620453295.4,286046998.1,P
1620453315.2,286047001.1,P
1620453335.1,286046999.2,N
1620453336.0,286046999.2,N
1620453355.8,286046999.6,N
1620453375.7,286046997.0,Y
1620453395.5,286046996.6,P
1620453415.3,286046997.2,N
1620453435.2,286046997.3,N
1620453455.0,286046995.1,Y
1620453455.9,286046995.1,P
1620453475.8,286046996.5,N
1620453495.6,286046996.7,P
1620453515.4,286046997.8,N
1620453535.3,286046997.6,N
1620453555.1,286046996.6,Y
1620453575.8,286047002.6,P
1620453595.7,286047002.3,N
